Location: ??????
(41.3164°N, 22.6615°E)
Time: 01:26:26
(UTC+00:00)

CUBESAT XI-V - Pass Details

Date: 04 July 2022
Orbit: 668 x 690 km, 98.1° (Epoch: 15 August)

Event Time Altitude Azimuth Distance (km) Brightness Sun altitude
Exits shadow 22:48:04 - 96° (E) 2,263 ? -25.8°
Reaches altitude 10° 22:48:52 10° 87° (E) 2,103 ? -25.8°
Maximum altitude 22:50:51 13° 61° (ENE) 1,921 ? -25.8°
Drops below altitude 10° 22:52:51 10° 36° (NE) 2,105 ? -25.7°
Sets 22:56:16 0° 8° (N) 3,022 ? -25.7°
